Weather History for Saranac Lake, NY

Change the Weather History Date:

Thursday, February 7, 2013

  Actual Average Record
Temperature  
Mean Temperature 1 °F 14 °F  
Max Temperature 17 °F 26 °F 48 °F (2005)
Min Temperature -15 °F 1 °F -31 °F (1993)
Degree Days  
Heating Degree Days 64 51  
Month to date heating degree days 429 363  
Since 1 July heating degree days 5338 5665  
Moisture  
Dew Point -7 °F    
Average Humidity 66    
Maximum Humidity 86    
Minimum Humidity 46    
Precipitation  
Precipitation 0.00 in 0.06 in 0.75 in (1978)
Month to date precipitation 0.02 0.41  
Year to date precipitation 1.25 2.54  
Sea Level Pressure  
Sea Level Pressure 30.44 in    
Wind  
Wind Speed 4 mph (NE)    
Max Wind Speed 13 mph    
Max Gust Speed 14 mph    
Visibility 10 miles    
Events      
T = Trace of Precipitation, MM = Missing Value Source: NWS Daily Summary

Daily Weather History Graph

Daily Weather History Graph

Search for Another Location

Airport:

Trip Planner

Search our weather history database for the weather conditions in past years. The results will help you decide how hot, cold, wet, or windy it might be!

Date:

Astronomy

Feb. 07, 2013 Rise Set
Actual Time 7:07 AM EST 5:15 PM EST
Civil Twilight 6:37 AM EST 5:45 PM EST
Nautical Twilight 6:02 AM EST 6:19 PM EST
Astronomical Twilight 5:28 AM EST 6:53 PM EST
Moon 4:48 AM EST (2/7) 2:33 PM EST (2/7)
Length of Visible Light 11h 08m
Length of Day
10h 07m
Waning Crescent, 9% of the Moon is Illuminated
Feb 7
Waning Crescent
Feb 10
New
Feb 17
First Quarter
Feb 25
Full
Mar 4
Last Quarter

Hourly Weather History & Observations

Time (EST) Temp. Windchill Dew Point Humidity Pressure Visibility Wind Dir Wind Speed Gust Speed Precip Events Conditions
12:51 AM -9.9 °F - -13.0 °F 86% 30.36 in 10.0 mi Calm Calm - N/A   Partly Cloudy
1:51 AM -7.1 °F - -11.0 °F 83% 30.39 in 10.0 mi Calm Calm - N/A   Overcast
2:51 AM -7.1 °F - -11.0 °F 83% 30.39 in 10.0 mi Calm Calm - N/A   Scattered Clouds
3:51 AM -11.0 °F - -15.0 °F 83% 30.41 in 10.0 mi Calm Calm - N/A   Clear
4:51 AM -11.0 °F - -16.1 °F 78% 30.44 in 10.0 mi Calm Calm - N/A   Clear
5:51 AM -15.0 °F - -18.9 °F 82% 30.46 in 10.0 mi Calm Calm - N/A   Clear
6:51 AM -13.0 °F - -18.0 °F 78% 30.48 in 10.0 mi Calm Calm - N/A   Clear
7:51 AM -11.0 °F - -16.1 °F 78% 30.50 in 10.0 mi Calm Calm - N/A   Mostly Cloudy
8:51 AM -2.0 °F -10.1 °F -9.0 °F 72% 30.51 in 10.0 mi NNE 3.5 mph - N/A   Overcast
9:51 AM 1.9 °F -5.6 °F -6.0 °F 69% 30.51 in 10.0 mi NNE 3.5 mph - N/A   Overcast
10:51 AM 3.9 °F - -5.1 °F 66% 30.52 in 10.0 mi Calm Calm - N/A   Overcast
11:51 AM 10.9 °F - -6.0 °F 47% 30.49 in 10.0 mi Calm Calm - N/A   Overcast
12:51 PM 12.9 °F - -5.1 °F 45% 30.47 in 10.0 mi Calm Calm - N/A   Overcast
1:51 PM 15.1 °F - -2.9 °F 45% 30.45 in 10.0 mi Calm Calm - N/A   Overcast
2:51 PM 15.1 °F 9.4 °F -0.9 °F 49% 30.43 in 10.0 mi ENE 3.5 mph - N/A   Overcast
3:51 PM 15.1 °F 5.2 °F -0.9 °F 49% 30.42 in 10.0 mi ENE 6.9 mph - N/A   Overcast
4:51 PM 10.9 °F -2.6 °F -2.0 °F 56% 30.43 in 10.0 mi NE 10.4 mph - N/A   Overcast
5:51 PM 8.1 °F -4.3 °F -2.0 °F 64% 30.44 in 10.0 mi NE 8.1 mph - N/A   Overcast
6:51 PM 6.1 °F -7.8 °F -4.0 °F 63% 30.45 in 10.0 mi ENE 9.2 mph - N/A   Overcast
7:51 PM 5.0 °F -8.1 °F -4.0 °F 66% 30.44 in 10.0 mi ENE 8.1 mph - N/A   Overcast
8:51 PM 3.9 °F -8.2 °F -5.1 °F 66% 30.41 in 10.0 mi ENE 6.9 mph - N/A   Overcast
9:51 PM 3.9 °F -8.2 °F -4.0 °F 70% 30.39 in 10.0 mi NE 6.9 mph - N/A   Overcast
10:51 PM 5.0 °F -9.1 °F -2.9 °F 70% 30.35 in 10.0 mi ENE 9.2 mph - N/A   Overcast
11:51 PM 5.0 °F -9.1 °F -0.9 °F 76% 30.32 in 10.0 mi ENE 9.2 mph - N/A   Overcast